User: anonymous   Login
Location: Unspecified
(0.0000°N, 0.0000°E)
Time: 17:11:33
(UTC+01:00)
Language:

CZ-4B R/B - Orbit

View from above orbital plane
View from above orbital plane
View from above satellite
View from above satellite

Ground track
Ground track

The orbit data is extracted from the following two-line orbital elements,

1 33410U 08053C   16042.18114301  .00002563  00000-0  19382-3 0  9991
2 33410  97.6640  13.5912 0123218  42.6142 318.4560 14.97349199397138
Epoch (UTC): 11 February 2016 04:20:50
Eccentricity: 0.0123218
inclination: 97.6640°
perigee height: 489 km
apogee height: 661 km
right ascension of ascending node: 13.5912°
argument of perigee: 42.6142°
revolutions per day: 14.97349199
mean anomaly at epoch: 318.4560°
orbit number at epoch: 39713

The dashed part of the orbit path shows where the satellite is in the earth's shadow,  

DLR